Weather in Novokhoperskiy

Russia / Voronezh Oblast     51°04′51″N   41°34′04″E
temp.,
°C
wind,
m/s
gust,
m/s
humid.,
%
clouds,
%
prec.,
mm/h
press.,
hPa
HPBL,
m
5 march, fri
fri500:00+3wsw8168658 0.0 1005659
03:00+2w6139779 0.9 1004516
06:00+2w61398100 0.3 1005488
09:000nw61098100 0.4 1007530
12:00+1nw469195 0.1 1009657
15:000nw458598 0.1 1011603
18:00−1nnw2485100 0.0 1013213
21:00−2nnw1186100 0.0 101522
6 march, sat
sat600:00−3n118793 0.0 101521
03:00−3ne229096 0.0 101670
06:00−4e2392100 0.0 1015174
09:00−3e2387100 0.0 1015275
12:00−2ese1286100 0.1 1014300
15:00−2wnw1193100 1.0 1014200
18:00−2nnw3496100 1.4 1014320
21:00−4n239798 1.6 1015169
7 march, sun
sun700:00−4nw4596100 1.4 1016350
03:00−7nw6994100 1.8 1018391
06:00−8w489263 0.0 1019271
09:00−5wsw6117931 0.0 1018777
12:00−3wsw7116943 0.0 10161147
15:00−1sw8146872 0.0 10121288
18:00−2sw91767100 0.0 10091106
21:00−2wsw10188297 0.0 1007972
8 march, mon
mon800:00−3nw7128794 0.8 1008683
03:00−5wsw488195 0.9 1008259
06:00−5sw4894100 0.1 1007338
09:00−1wsw91490100 0.4 10061053
12:000wsw91392100 0.4 10041061
15:00−1wnw9147899 2.1 10051452
18:00−6wnw61466100 0.1 1009674
21:00−8wnw4117850 0.1 1013349
9 march, tue
tue900:00−9w33840 0.0 101477
03:00−10wsw238327 0.0 101444
06:00−9wsw128394 0.0 101421
09:00−7nne007697 0.0 1013126
12:00−6nne1168100 0.0 1013522
15:00−5nnw337087 0.0 1013866
18:00−8nnw479153 0.0 1014255
21:00−10nnw598976 0.0 1017465